sat.trackr.live / text

‹ back to catalog

SHIYAN-10 01 (SY-10 01)

NORAD 49258 · 2021-087A

PAYLOAD ACTIVE UNKNOWN

§ Identity

Operator
Country
PRC
Launch date
2021-09-27
Launch site
XICLF
Launch vehicle
Mass (kg)
RCS (m²)

External: N2YO · Heavens-Above · Gunter

§ Orbital elements

Epoch: 2026-09-20T02:46:54.696576Z

Period
717.85 min
Inclination
63.1356°
Eccentricity
0.6883703
Mean motion
2.00597649 rev/d
Perigee alt
1,897.9 km
Apogee alt
38,460.5 km
Semi-major
26,557.3 km
B*
0.0000e+0
RAAN
209.3305°
Arg perigee
269.7132°
Mean anomaly
18.0216°
Rev number
3,643

§ Raw data

SHIYAN-10 01 (SY-10 01)1 49258U 21087A   26263.11591084  .00000651  00000+0  00000+0 0  99942 49258  63.1356 209.3305 6883703 269.7132  18.0216  2.00597649 36437

JSON: /api/v1/satellites/49258 · /tle

For live sub-satellite position, see the globe view (requires WebGL).

§ Visibility from observer

Set your observer location to see the next 7 days of passes ≥ 10°. The values pass through the URL so the page stays shareable.

No JS? Fill the form by hand. The geolocation button needs JavaScript.